Regional Weather Roundup
Issued by NWS

Home | Current Version | Previous Version | Graphics & Text | Print | Product List | Glossary On
Versions: 1 2 3 4 5 6 7 8 9 10 11 12 13 14 15 16 17 18 19 20 21 22 23 24 25 26 27 28 29 30 31 32 33 34 35 36 37 38 39 40 41 42 43 44 45 46 47 48 49 50
000
ASUS43 KOAX 232310
RWRNE

WEATHER ROUNDUP FOR NEBRASKA
NATIONAL WEATHER SERVICE OMAHA NE
600 PM CDT MON MAY 23 2016

NOTES: SATELLITE DATA IS BEING USED TO AUGMENT CLOUD COVER ABOVE
       12000 FEET.
       "FAIR" INDICATES FEW OR NO CLOUDS BELOW 12,000 FEET WITH NO
       SIGNIFICANT WEATHER AND/OR OBSTRUCTIONS TO VISIBILITY.

  * THESE STATIONS DO NOT REPORT WEATHER SUCH AS RAIN...SNOW OR FOG.

NEZ001>004-019>022-054>056-240000-
NEBRASKA PANHANDLE

CITY           SKY/WX    TMP DP  RH WIND       PRES   REMARKS
SCOTTSBLUFF    PTSUNNY   60  42  51 S8        29.86R
ALLIANCE       CLOUDY    64  35  34 W23G36    29.83R
CHADRON        CLOUDY    75  31  19 NW9       29.76S
KIMBALL        CLOUDY    64  37  38 S15G22    29.88R
SIDNEY         LGT RAIN  64  36  35 NW25G33   29.88R
$$

NEZ057>060-069>072-079>082-240000-
SOUTHWEST NEBRASKA

CITY           SKY/WX    TMP DP  RH WIND       PRES   REMARKS
NORTH PLATTE   SUNNY     77  42  28 N7        29.78S HAZE
IMPERIAL       SUNNY     75  36  24 S8        29.81S
LEXINGTON      SUNNY     77  50  38 CALM      29.76S
MCCOOK         SUNNY     78  50  37 VRB5      29.77S
OGALLALA       SUNNY     75  33  21 S6        29.80F
$$

NEZ005>010-023>029-035>040-094-240000-
NORTH CENTRAL NEBRASKA

CITY           SKY/WX    TMP DP  RH WIND       PRES   REMARKS
VALENTINE      MOSUNNY   77  28  16 SW15      29.72F
AINSWORTH      MOSUNNY   77  33  19 W14G23    29.75S
BROKEN BOW     MOSUNNY   78  45  30 VRB5      29.76F
O`NEILL        SUNNY     79  44  28 SW10      29.74S
ORD            PTSUNNY   76  55  48 CALM      29.74F
THEDFORD       MOSUNNY   78  34  20 W13G18    29.78S
$$

NEZ041-046>049-061>064-073>077-083>087-240000-
SOUTH CENTRAL NEBRASKA

CITY           SKY/WX    TMP DP  RH WIND       PRES   REMARKS
GRAND ISLAND   CLOUDY    72  64  76 S7        29.75F
AURORA         CLOUDY    71  63  75 S12G17    29.76R
HASTINGS       LGT RAIN  70  66  87 E8        29.76S
HEBRON         CLOUDY    74  59  59 S16       29.76F
HOLDREGE       CLOUDY    76  56  49 CALM      29.75S
KEARNEY *      PTSUNNY   75  57  53 CALM      29.76S
YORK           LGT RAIN  75  63  64 S17       29.74F
$$

NEZ011>018-030>034-042>045-240000-
NORTHEAST NEBRASKA

CITY           SKY/WX    TMP DP  RH WIND       PRES   REMARKS
NORFOLK        CLOUDY    75  63  66 S12       29.73F
ALBION         CLOUDY    73  62  69 S9        29.74S
BLAIR          RAIN      67  64  88 SE16      29.78R
FREMONT        RAIN      66  66  97 SE7       29.79R
TEKAMAH        LGT RAIN  68  64  87 S12       29.78S
WAYNE          RAIN      71  62  72 S17       29.75S
$$

NEZ050>053-065>068-078-088>093-240000-
SOUTHEAST NEBRASKA

CITY           SKY/WX    TMP DP  RH WIND       PRES   REMARKS
LINCOLN        CLOUDY    77  64  64 S16G22    29.76F
OMAHA EPPLEY   LGT RAIN  70  64  81 S15       29.78F
BEATRICE       PTSUNNY   74  62  65 S13       29.77F
FALLS CITY     PTSUNNY   73  63  70 S9        29.80F
NEBRASKA CITY  CLOUDY    73  61  66 S17       29.80F
PLATTSMOUTH    CLOUDY    76  63  64 S15G21    29.78F
$$

NEZ044-045-051>053-067-240000-
OMAHA AREA

CITY           SKY/WX    TMP DP  RH WIND       PRES   REMARKS
OMAHA EPPLEY   LGT RAIN  70  64  81 S15       29.78F
BLAIR          RAIN      67  64  88 SE16      29.78R
FREMONT        RAIN      66  66  97 SE7       29.79R
MILLARD        CLOUDY    71  64  78 SE13      29.77F
OFFUTT AFB     CLOUDY    73  64  71 SE15      29.78F
PLATTSMOUTH    CLOUDY    76  63  64 S15G21    29.78F
WAHOO          RAIN      68  66  93 SE3       29.77S
$$



USA.gov is the U.S. government's official web portal to all federal, state and local government web resources and services.